{"data":{"norad_id":64873,"intl_designator":"2025-154E","name":"TRACERS 2","alt_names":[],"object_type":"PAYLOAD","status":"ACTIVE","operator":null,"country":"US","launch_date":"2025-07-23","launch_site_code":"AFWTR","launch_vehicle":null,"mission":null,"orbit_class":"UNKNOWN","rcs_meters":null,"size_class":null,"mass_kg":null,"dimensions":null,"purposes":[],"wikipedia_slug":null,"has_3d_model":false,"image_url":null,"decayed_at":null,"tle_current":{"epoch":"2026-09-21T18:42:15.806304Z","epoch_age_seconds":60722,"freshness":"FRESH","line1":"1 64873U 25154E   26264.77934961  .00000960  00000+0  96021-4 0  9997","line2":"2 64873  97.6592 326.0471 0003455 359.5569   0.5648 14.93698737 63414","mean_motion":14.93698737,"eccentricity":0.0003455,"inclination_deg":97.6592,"raan_deg":326.0471,"arg_perigee_deg":359.5569,"mean_anomaly_deg":0.5648,"bstar":9.6021e-5,"rev_number":6341,"period_min":96.404982097806,"perigee_km":584.00842874438,"apogee_km":588.8209339562,"semimajor_km":6964.5516813503,"source":"CELESTRAK","updated_at":"2026-09-22T09:00:30.012145Z"}}}